Hourly Weather Cayambe

Today, 12 June, Saturday

Time Temperature Precipitation Wind Pressure Humidity
00:00 +9°C° 0 mm 2 mps 531 mmHg 89%
01:00 +9°C° 0 mm 2 mps 531 mmHg 90%
02:00 +8°C° 0 mm 2 mps 531 mmHg 89%
03:00 +8°C° 0 mm 2 mps 530 mmHg 89%
04:00 +8°C° 0 mm 2 mps 530 mmHg 89%
05:00 +9°C° 0 mm 2 mps 530 mmHg 88%
06:00 +9°C° 0 mm 2 mps 531 mmHg 87%
07:00 +10°C° 0 mm 2 mps 531 mmHg 86%
08:00 +12°C° 0 mm 2 mps 532 mmHg 80%
09:00 +14°C° 0 mm 2 mps 533 mmHg 75%
10:00 +15°C° 0 mm 2 mps 534 mmHg 69%
11:00 +16°C° 0.1 mm 2 mps 534 mmHg 67%
12:00 +16°C° 0.1 mm 2 mps 533 mmHg 64%
13:00 +17°C° 0.1 mm 2 mps 533 mmHg 62%
14:00 +17°C° 0.7 mm 2 mps 533 mmHg 65%
15:00 +16°C° 0.7 mm 2 mps 532 mmHg 68%
16:00 +16°C° 0.7 mm 2 mps 531 mmHg 72%
17:00 +14°C° 0.9 mm 1 mps 531 mmHg 78%
18:00 +13°C° 0.9 mm 1 mps 531 mmHg 84%
19:00 +11°C° 0.9 mm 1 mps 531 mmHg 91%
20:00 +10°C° 0.2 mm 2 mps 531 mmHg 91%
21:00 +10°C° 0.2 mm 2 mps 531 mmHg 91%
22:00 +9°C° 0.2 mm 2 mps 532 mmHg 91%
23:00 +10°C° 0.1 mm 1 mps 531 mmHg 92%

Tomorrow, 13 June, Sunday

Time Temperature Precipitation Wind Pressure Humidity
00:00 +10°C° 0.1 mm 1 mps 531 mmHg 93%
01:00 +9°C° 0.1 mm 0 mps 531 mmHg 93%
02:00 +9°C° 0.4 mm 0 mps 531 mmHg 94%
03:00 +9°C° 0.4 mm 0 mps 531 mmHg 95%
04:00 +9°C° 0.4 mm 0 mps 530 mmHg 95%
05:00 +9°C° 0.8 mm 0 mps 531 mmHg 95%
06:00 +9°C° 0.8 mm 0 mps 531 mmHg 95%
07:00 +9°C° 0.8 mm 0 mps 531 mmHg 95%
08:00 +9°C° 1.7 mm 0 mps 532 mmHg 93%
09:00 +10°C° 1.7 mm 0 mps 532 mmHg 91%
10:00 +10°C° 1.7 mm 0 mps 532 mmHg 89%
11:00 +10°C° 1.1 mm 0 mps 532 mmHg 89%
12:00 +10°C° 1.1 mm 0 mps 532 mmHg 88%
13:00 +10°C° 1.1 mm 0 mps 532 mmHg 88%
14:00 +10°C° 1 mm 0 mps 531 mmHg 89%
15:00 +11°C° 1 mm 1 mps 531 mmHg 91%
16:00 +11°C° 1 mm 1 mps 531 mmHg 92%
17:00 +10°C° 0.9 mm 1 mps 531 mmHg 93%
18:00 +10°C° 0.9 mm 1 mps 531 mmHg 94%
19:00 +9°C° 0.9 mm 0 mps 531 mmHg 95%
20:00 +10°C° 0.2 mm 1 mps 531 mmHg 94%
21:00 +10°C° 0.2 mm 1 mps 532 mmHg 92%
22:00 +10°C° 0.2 mm 1 mps 532 mmHg 91%
23:00 +10°C° 0.1 mm 1 mps 532 mmHg 91%

Day after tomorrow, 14 June, Monday

Time Temperature Precipitation Wind Pressure Humidity
00:00 +10°C° 0.1 mm 1 mps 531 mmHg 90%
01:00 +9°C° 0.1 mm 0 mps 531 mmHg 89%
02:00 +9°C° 0 mm 0 mps 531 mmHg 89%
03:00 +9°C° 0 mm 0 mps 531 mmHg 89%
04:00 +9°C° 0 mm 0 mps 531 mmHg 90%
05:00 +9°C° 0.1 mm 0 mps 531 mmHg 89%
06:00 +10°C° 0.1 mm 1 mps 531 mmHg 89%
07:00 +11°C° 0.1 mm 1 mps 532 mmHg 89%
08:00 +12°C° 0.1 mm 1 mps 532 mmHg 84%
09:00 +13°C° 0.1 mm 1 mps 533 mmHg 78%
10:00 +14°C° 0.1 mm 1 mps 534 mmHg 73%
11:00 +14°C° 0.3 mm 1 mps 533 mmHg 73%
12:00 +14°C° 0.3 mm 1 mps 533 mmHg 73%
13:00 +14°C° 0.3 mm 2 mps 533 mmHg 73%
14:00 +14°C° 0.5 mm 1 mps 532 mmHg 75%
15:00 +14°C° 0.5 mm 1 mps 532 mmHg 76%
16:00 +14°C° 0.5 mm 1 mps 532 mmHg 77%
17:00 +13°C° 0.5 mm 1 mps 531 mmHg 82%
18:00 +12°C° 0.5 mm 1 mps 531 mmHg 87%
19:00 +11°C° 0.5 mm 1 mps 531 mmHg 92%
20:00 +10°C° 0.1 mm 1 mps 531 mmHg 92%
21:00 +10°C° 0.1 mm 1 mps 531 mmHg 92%
22:00 +9°C° 0.1 mm 1 mps 532 mmHg 92%
23:00 +9°C° 0 mm 1 mps 531 mmHg 92%

15 June, Tuesday

Time Temperature Precipitation Wind Pressure Humidity
00:00 +10°C° 0 mm 1 mps 531 mmHg 91%
01:00 +10°C° 0 mm 1 mps 531 mmHg 91%
02:00 +10°C° 0 mm 1 mps 531 mmHg 91%
03:00 +10°C° 0 mm 1 mps 531 mmHg 91%
04:00 +10°C° 0 mm 1 mps 530 mmHg 91%
05:00 +10°C° 0 mm 1 mps 531 mmHg 90%
06:00 +10°C° 0 mm 1 mps 531 mmHg 90%
07:00 +9°C° 0 mm 2 mps 532 mmHg 89%
08:00 +11°C° 0.1 mm 1 mps 532 mmHg 84%
09:00 +13°C° 0.1 mm 1 mps 533 mmHg 80%
10:00 +14°C° 0.1 mm 1 mps 533 mmHg 75%
11:00 +14°C° 0.2 mm 2 mps 533 mmHg 76%
12:00 +14°C° 0.2 mm 2 mps 533 mmHg 77%
13:00 +14°C° 0.2 mm 2 mps 533 mmHg 77%
14:00 +14°C° 0.3 mm 2 mps 532 mmHg 79%
15:00 +13°C° 0.3 mm 2 mps 532 mmHg 81%
16:00 +13°C° 0.3 mm 1 mps 531 mmHg 82%
17:00 +12°C° 0.3 mm 1 mps 531 mmHg 85%
18:00 +11°C° 0.3 mm 1 mps 531 mmHg 88%
19:00 +11°C° 0.3 mm 1 mps 531 mmHg 91%
20:00 +11°C° 0.2 mm 1 mps 532 mmHg 91%
21:00 +10°C° 0.2 mm 1 mps 532 mmHg 91%
22:00 +10°C° 0.2 mm 1 mps 532 mmHg 91%
23:00 +10°C° 0.1 mm 1 mps 532 mmHg 91%

16 June, Wednesday

Time Temperature Precipitation Wind Pressure Humidity
00:00 +10°C° 0.1 mm 1 mps 532 mmHg 91%
01:00 +10°C° 0.1 mm 1 mps 531 mmHg 91%
02:00 +10°C° 0.2 mm 1 mps 531 mmHg 91%
03:00 +10°C° 0.2 mm 1 mps 531 mmHg 91%
04:00 +10°C° 0.2 mm 1 mps 531 mmHg 91%
05:00 +10°C° 0.1 mm 1 mps 531 mmHg 91%
06:00 +10°C° 0.1 mm 1 mps 531 mmHg 91%
07:00 +9°C° 0.1 mm 2 mps 531 mmHg 91%
08:00 +10°C° 0.1 mm 2 mps 532 mmHg 87%
09:00 +12°C° 0.1 mm 2 mps 533 mmHg 82%
10:00 +13°C° 0.1 mm 2 mps 533 mmHg 78%
11:00 +13°C° 0.3 mm 2 mps 533 mmHg 78%
12:00 +14°C° 0.3 mm 2 mps 533 mmHg 77%
13:00 +13°C° 0.3 mm 3 mps 533 mmHg 77%
14:00 +13°C° 0.3 mm 2 mps 532 mmHg 79%
15:00 +13°C° 0.3 mm 2 mps 532 mmHg 81%
16:00 +12°C° 0.3 mm 2 mps 531 mmHg 83%
17:00 +12°C° 0.1 mm 2 mps 531 mmHg 85%
18:00 +10°C° 0.1 mm 2 mps 531 mmHg 87%
19:00 +10°C° 0.1 mm 2 mps 531 mmHg 89%
20:00 +10°C° 0 mm 2 mps 531 mmHg 89%
21:00 +9°C° 0 mm 2 mps 532 mmHg 89%
22:00 +9°C° 0 mm 2 mps 532 mmHg 89%
23:00 +9°C° 0 mm 2 mps 532 mmHg 90%

17 June, Thursday

Time Temperature Precipitation Wind Pressure Humidity
00:00 +9°C° 0 mm 2 mps 531 mmHg 90%
01:00 +8°C° 0 mm 2 mps 531 mmHg 91%
02:00 +8°C° 0 mm 2 mps 530 mmHg 91%
03:00 +8°C° 0 mm 2 mps 530 mmHg 90%
04:00 +8°C° 0 mm 2 mps 530 mmHg 90%
05:00 +8°C° 0 mm 2 mps 530 mmHg 89%
06:00 +8°C° 0 mm 2 mps 531 mmHg 88%
07:00 +9°C° 0 mm 3 mps 531 mmHg 87%
08:00 +10°C° 0 mm 2 mps 532 mmHg 81%
09:00 +13°C° 0 mm 2 mps 533 mmHg 75%
10:00 +15°C° 0 mm 2 mps 534 mmHg 68%
11:00 +15°C° 0.1 mm 2 mps 533 mmHg 68%
12:00 +15°C° 0.1 mm 2 mps 533 mmHg 67%
13:00 +16°C° 0.1 mm 2 mps 533 mmHg 66%
14:00 +15°C° 0.3 mm 2 mps 532 mmHg 70%
15:00 +15°C° 0.3 mm 2 mps 532 mmHg 74%
16:00 +14°C° 0.3 mm 2 mps 531 mmHg 77%
17:00 +13°C° 0.1 mm 2 mps 531 mmHg 82%
18:00 +12°C° 0.1 mm 2 mps 531 mmHg 86%
19:00 +10°C° 0.1 mm 2 mps 531 mmHg 91%
20:00 +9°C° 0 mm 2 mps 531 mmHg 91%
21:00 +9°C° 0 mm 2 mps 531 mmHg 91%
22:00 +9°C° 0 mm 3 mps 531 mmHg 90%
23:00 +9°C° 0 mm 2 mps 531 mmHg 90%
Show more

We Need Your Consent

Meteoprog and our Service Providers may store and access personal data such as cookies, device identifiers or other similar technologies on your device and process such data to personalise content and ads, as well as provide social media features and to analyse the traffic.

  • Store and/or access information on your device

    Cookies, device identifiers or other information can be stored or accessed on your device for the purposes indicated above.

  • Personalised ads and content, ad and content measurement, audience insights, and products development

    Ads and content can be personalised based on a profile. More data can be added to better personalise ads and content. Ad and content performance can be measured. Insights about the audience who saw the ads and content can be derived. Such data can be used to develop or improve user’s experience, systems and software.

By clicking ‘I Agree’ you will allow the use of indicated cookies, device identifiers, web beacons or other similar technologies. Your settings can be changed in the browser on your device.

For certain purposes, legitimate interests may be relied on, rather than consent. You can read more about this in our Privacy and Cookie Policy.